This is the latest recevied weather packets stored in our database for station/object K0SNA. If no packets are shown the sender has not sent any weather packets the latest 10 day(s).
| Time | Temp. | Humidity | Pressure | Rain* | Wind** | Luminosity | Snow |
|---|---|---|---|---|---|---|---|
| 1777762397 | 18.89° C | 32% | 1011.2 hPa | 0 mm | - | 57 W/m² | - |
| 1777762094 | 19.44° C | 32% | 1011.5 hPa | 0 mm | - | 64 W/m² | - |
| 1777761790 | 18.89° C | 32% | 1011.3 hPa | 0 mm | - | 106 W/m² | - |
| 1777761488 | 18.89° C | 31% | 1011.4 hPa | 0 mm | - | 172 W/m² | - |
| 1777761186 | 18.89° C | 31% | 1011.7 hPa | 0 mm | - | 147 W/m² | - |
| 1777760883 | 18.89° C | 32% | 1011.7 hPa | 0 mm | - | 130 W/m² | - |
| 1777760581 | 18.89° C | 31% | 1011.9 hPa | 0 mm | - | 124 W/m² | - |
| 1777760276 | 18.89° C | 31% | 1011.7 hPa | 0 mm | - | 126 W/m² | - |
| 1777759972 | 18.89° C | 32% | 1011.8 hPa | 0 mm | - | 116 W/m² | - |
| 1777759669 | 18.89° C | 32% | 1012 hPa | 0 mm | - | 126 W/m² | - |
| 1777759365 | 18.89° C | 32% | 1012 hPa | 0 mm | - | 157 W/m² | - |
| 1777759062 | 18.89° C | 31% | 1012 hPa | 0 mm | - | 133 W/m² | - |
| 1777758759 | 18.89° C | 33% | 1012.1 hPa | 0 mm | - | 155 W/m² | - |
| 1777758457 | 18.89° C | 32% | 1012.2 hPa | 0 mm | - | 181 W/m² | - |
| 1777758153 | 18.89° C | 32% | 1012.2 hPa | 0 mm | - | 168 W/m² | - |
| 1777757851 | 18.89° C | 31% | 1012.2 hPa | 0 mm | - | 174 W/m² | - |
| 1777757548 | 18.89° C | 31% | 1012.5 hPa | 0 mm | - | 158 W/m² | - |
| 1777757247 | 19.44° C | 31% | 1012.4 hPa | 0 mm | - | 281 W/m² | - |
| 1777756944 | 20° C | 31% | 1012.5 hPa | 0 mm | - | 359 W/m² | - |
| 1777756640 | 20° C | 30% | 1012.6 hPa | 0 mm | - | 454 W/m² | - |
| 1777756337 | 19.44° C | 30% | 1012.7 hPa | 0 mm | - | 504 W/m² | - |
| 1777756034 | 18.89° C | 31% | 1012.8 hPa | 0 mm | - | 505 W/m² | - |
| 1777755731 | 18.89° C | 31% | 1013.1 hPa | 0 mm | - | 485 W/m² | - |
| 1777755429 | 19.44° C | 30% | 1012.9 hPa | 0 mm | - | 538 W/m² | - |
| 1777755125 | 19.44° C | 31% | 1013.2 hPa | 0 mm | - | 524 W/m² | - |
* Rain latest hour (hover to see other rain measurements)
** Current wind speed in m/s (hover to see current wind gust speed)